sat.trackr.live / text

‹ back to catalog

STARLINK-36814

NORAD 67904 · 2026-036A

PAYLOAD ACTIVE UNKNOWN

§ Identity

Operator
Country
US
Launch date
2026-02-22
Launch site
AFETR
Launch vehicle
Mass (kg)
RCS (m²)

Purposes: comms

External: N2YO · Heavens-Above · Gunter

§ Orbital elements

Epoch: 2026-05-25T02:26:30.444000Z

Period
94.27 min
Inclination
42.9982°
Eccentricity
0.0001259
Mean motion
15.27585229 rev/d
Perigee alt
482.2 km
Apogee alt
483.9 km
Semi-major
6,861.2 km
B*
4.7935e-4
RAAN
174.1603°
Arg perigee
270.0499°
Mean anomaly
90.0208°
Rev number
1,540

§ Raw data

STARLINK-368141 67904U 26036A   26145.10174125  .00012954  00000+0  47935-3 0  99932 67904  42.9982 174.1603 0001259 270.0499  90.0208 15.27585229 15407

JSON: /api/v1/satellites/67904 · /tle

For live sub-satellite position, see the globe view (requires WebGL).

§ Visibility from observer

Set your observer location to see the next 7 days of passes ≥ 10°. The values pass through the URL so the page stays shareable.

No JS? Fill the form by hand. The geolocation button needs JavaScript.